| time (UTC) | temp F | wind direction | speed MPH | gust MPH | rain 1hr in | rain 24hr in | rain mn in | humidity % | barometer mb |
| 20260905032830 | 83 | 360 | 2.0 | 8.0 | 0.00 | 0.01 | 0.01 | 80 | 1012.9 |
| 20260905032329 | 83 | 360 | 1.0 | 6.0 | 0.00 | 0.01 | 0.01 | 80 | 1012.7 |
| 20260905031828 | 83 | 360 | 2.0 | 8.0 | 0.00 | 0.01 | 0.01 | 80 | 1012.8 |
| 20260905031327 | 83 | 360 | 2.0 | 8.0 | 0.00 | 0.01 | 0.01 | 80 | 1012.8 |
| 20260905030813 | 83 | 360 | 4.0 | 8.0 | 0.00 | 0.01 | 0.01 | 81 | 1012.7 |
| 20260905030351 | 82 | 360 | 3.0 | 6.0 | 0.00 | 0.01 | 0.01 | 81 | 1012.6 |
| 20260905025829 | 82 | 360 | 2.0 | 6.0 | 0.00 | 0.01 | 0.01 | 81 | 1012.5 |
| 20260905025328 | 82 | 360 | 3.0 | 6.0 | 0.00 | 0.01 | 0.01 | 82 | 1012.4 |
| 20260905024827 | 82 | 360 | 3.0 | 6.0 | 0.00 | 0.01 | 0.01 | 82 | 1012.4 |
| 20260905024326 | 82 | 360 | 2.0 | 6.0 | 0.00 | 0.01 | 0.01 | 82 | 1012.5 |
| 20260905023824 | 82 | 360 | 1.0 | 4.0 | 0.00 | 0.01 | 0.01 | 82 | 1012.4 |
| 20260905023324 | 82 | 360 | 2.0 | 4.0 | 0.00 | 0.01 | 0.01 | 82 | 1012.4 |
| 20260905022823 | 82 | 360 | 1.0 | 4.0 | 0.00 | 0.01 | 0.01 | 81 | 1012.3 |
| 20260905022321 | 82 | 360 | 1.0 | 4.0 | 0.00 | 0.01 | 0.01 | 81 | 1012.3 |
| 20260905021820 | 82 | 360 | 1.0 | 4.0 | 0.00 | 0.01 | 0.01 | 81 | 1012.3 |
| 20260905021319 | 82 | 360 | 1.0 | 5.0 | 0.00 | 0.01 | 0.01 | 81 | 1012.1 |
| 20260905020818 | 82 | 360 | 2.0 | 5.0 | 0.00 | 0.01 | 0.01 | 81 | 1012.2 |
| 20260905020319 | 83 | 360 | 1.0 | 3.0 | 0.00 | 0.01 | 0.01 | 80 | 1012.1 |
| 20260905015818 | 83 | 360 | 1.0 | 5.0 | 0.00 | 0.01 | 0.01 | 79 | 1012.0 |
| 20260905015339 | 83 | 360 | 2.0 | 5.0 | 0.00 | 0.01 | 0.01 | 79 | 1012.1 |
| 20260905014819 | 83 | 360 | 2.0 | 5.0 | 0.00 | 0.01 | 0.01 | 78 | 1012.0 |
| 20260905014318 | 83 | 360 | 2.0 | 5.0 | 0.00 | 0.01 | 0.01 | 78 | 1012.0 |
| 20260905013838 | 83 | 360 | 0.0 | 3.0 | 0.00 | 0.01 | 0.01 | 78 | 1011.9 |
| 20260905013315 | 83 | 360 | 1.0 | 4.0 | 0.00 | 0.01 | 0.01 | 78 | 1011.8 |
| 20260905012816 | 83 | 360 | 1.0 | 3.0 | 0.00 | 0.01 | 0.01 | 77 | 1011.8 |
| 20260905012314 | 84 | 360 | 1.0 | 3.0 | 0.00 | 0.01 | 0.01 | 76 | 1011.7 |
| 20260905011852 | 84 | 360 | 0.0 | 3.0 | 0.00 | 0.01 | 0.01 | 75 | 1011.6 |
| 20260905011330 | 85 | 360 | 0.0 | 2.0 | 0.00 | 0.01 | 0.01 | 75 | 1011.5 |
| 20260905010828 | 85 | 360 | 0.0 | 2.0 | 0.00 | 0.01 | 0.01 | 74 | 1011.5 |
| 20260905010348 | 85 | 360 | 0.0 | 2.0 | 0.00 | 0.01 | 0.01 | 73 | 1011.6 |
| 20260905005822 | 86 | 360 | 0.0 | 4.0 | 0.00 | 0.01 | 0.01 | 72 | 1011.5 |
| 20260905005323 | 86 | 360 | 0.0 | 4.0 | 0.00 | 0.01 | 0.01 | 71 | 1011.5 |
| 20260905004822 | 87 | 360 | 1.0 | 5.0 | 0.00 | 0.01 | 0.01 | 70 | 1011.3 |
| 20260905004318 | 87 | 360 | 2.0 | 5.0 | 0.00 | 0.01 | 0.01 | 68 | 1011.3 |
| 20260905003819 | 87 | 360 | 1.0 | 5.0 | 0.00 | 0.01 | 0.01 | 69 | 1011.3 |
| 20260905003317 | 87 | 360 | 2.0 | 5.0 | 0.00 | 0.01 | 0.01 | 68 | 1011.3 |
| 20260905002815 | 88 | 360 | 2.0 | 5.0 | 0.00 | 0.01 | 0.01 | 67 | 1011.3 |
| 20260905002334 | 88 | 360 | 1.0 | 6.0 | 0.00 | 0.01 | 0.01 | 68 | 1011.2 |
| 20260905001813 | 88 | 360 | 2.0 | 9.0 | 0.00 | 0.01 | 0.01 | 66 | 1011.1 |
| 20260905001313 | 88 | 360 | 3.0 | 9.0 | 0.00 | 0.01 | 0.01 | 67 | 1011.1 |
| 20260905000851 | 88 | 360 | 3.0 | 10.0 | 0.00 | 0.01 | 0.01 | 68 | 1011.1 |
| 20260905000332 | 88 | 360 | 3.0 | 10.0 | 0.00 | 0.01 | 0.01 | 68 | 1011.1 |
| 20260904235829 | 88 | 360 | 2.0 | 9.0 | 0.00 | 0.01 | 0.01 | 68 | 1011.2 |
| 20260904235328 | 88 | 360 | 2.0 | 11.0 | 0.00 | 0.01 | 0.01 | 68 | 1011.1 |
| 20260904234828 | 89 | 360 | 4.0 | 12.0 | 0.00 | 0.01 | 0.01 | 67 | 1011.1 |
| 20260904234327 | 89 | 360 | 3.0 | 12.0 | 0.00 | 0.01 | 0.01 | 66 | 1011.2 |
| 20260904233826 | 89 | 360 | 3.0 | 11.0 | 0.00 | 0.01 | 0.01 | 67 | 1011.1 |
| 20260904233313 | 89 | 360 | 5.0 | 11.0 | 0.00 | 0.01 | 0.01 | 66 | 1011.1 |
| 20260904232828 | 89 | 360 | 4.0 | 10.0 | 0.00 | 0.01 | 0.01 | 66 | 1011.1 |
| 20260904232332 | 89 | 360 | 5.0 | 10.0 | 0.00 | 0.01 | 0.01 | 65 | 1011.0 |
| 20260904231831 | 90 | 360 | 4.0 | 13.0 | 0.00 | 0.01 | 0.01 | 65 | 1011.0 |
| 20260904231331 | 90 | 360 | 6.0 | 14.0 | 0.00 | 0.01 | 0.01 | 65 | 1011.1 |
| 20260904230831 | 91 | 360 | 5.0 | 13.0 | 0.00 | 0.01 | 0.01 | 64 | 1011.1 |
| 20260904230329 | 92 | 360 | 3.0 | 12.0 | 0.00 | 0.01 | 0.01 | 64 | 1011.1 |
| 20260904225828 | 92 | 360 | 5.0 | 13.0 | 0.00 | 0.01 | 0.01 | 64 | 1011.1 |
| 20260904225327 | 92 | 360 | 3.0 | 14.0 | 0.00 | 0.01 | 0.01 | 64 | 1011.0 |
| 20260904224826 | 92 | 360 | 6.0 | 14.0 | 0.00 | 0.01 | 0.01 | 65 | 1011.0 |
| 20260904224331 | 92 | 360 | 5.0 | 13.0 | 0.00 | 0.01 | 0.01 | 66 | 1011.0 |
| 20260904223831 | 91 | 360 | 3.0 | 14.0 | 0.00 | 0.01 | 0.01 | 66 | 1011.1 |
| 20260904223348 | 90 | 360 | 5.0 | 14.0 | 0.00 | 0.01 | 0.01 | 68 | 1011.1 |
| 20260904222826 | 90 | 360 | 4.0 | 12.0 | 0.00 | 0.01 | 0.01 | 69 | 1011.1 |
| 20260904222328 | 89 | 360 | 5.0 | 9.0 | 0.00 | 0.01 | 0.01 | 69 | 1011.2 |
| 20260904221847 | 89 | 360 | 2.0 | 10.0 | 0.00 | 0.01 | 0.01 | 69 | 1011.3 |
| 20260904221327 | 89 | 360 | 4.0 | 11.0 | 0.00 | 0.01 | 0.01 | 68 | 1011.3 |
| 20260904220825 | 90 | 360 | 3.0 | 11.0 | 0.00 | 0.01 | 0.01 | 68 | 1011.3 |
| 20260904220326 | 90 | 360 | 4.0 | 11.0 | 0.00 | 0.01 | 0.01 | 67 | 1011.4 |
| 20260904215826 | 90 | 360 | 4.0 | 11.0 | 0.00 | 0.01 | 0.01 | 68 | 1011.4 |
| 20260904215326 | 91 | 360 | 5.0 | 11.0 | 0.00 | 0.01 | 0.01 | 67 | 1011.4 |
| 20260904214825 | 91 | 360 | 3.0 | 11.0 | 0.00 | 0.01 | 0.01 | 66 | 1011.4 |
| 20260904214325 | 91 | 360 | 3.0 | 11.0 | 0.00 | 0.01 | 0.01 | 66 | 1011.4 |
| 20260904213826 | 92 | 360 | 5.0 | 13.0 | 0.00 | 0.01 | 0.01 | 66 | 1011.4 |
| 20260904213327 | 92 | 360 | 4.0 | 13.0 | 0.00 | 0.01 | 0.01 | 65 | 1011.4 |
| 20260904212827 | 93 | 360 | 4.0 | 9.0 | 0.00 | 0.01 | 0.01 | 65 | 1011.4 |
| 20260904212328 | 93 | 360 | 3.0 | 8.0 | 0.00 | 0.01 | 0.01 | 65 | 1011.6 |
| 20260904211822 | 93 | 360 | 4.0 | 8.0 | 0.00 | 0.01 | 0.01 | 60 | 1011.6 |
| 20260904211323 | 93 | 360 | 3.0 | 5.0 | 0.00 | 0.01 | 0.01 | 55 | 1011.5 |
| 20260904210821 | 92 | 360 | 3.0 | 9.0 | 0.00 | 0.01 | 0.01 | 55 | 1011.6 |
| 20260904210322 | 92 | 360 | 5.0 | 11.0 | 0.00 | 0.01 | 0.01 | 58 | 1011.6 |
| 20260904205821 | 92 | 360 | 4.0 | 6.0 | 0.00 | 0.01 | 0.01 | 56 | 1011.7 |
| 20260904205319 | 92 | 360 | 2.0 | 6.0 | 0.00 | 0.01 | 0.01 | 62 | 1011.8 |
| 20260904204820 | 92 | 360 | 2.0 | 5.0 | 0.00 | 0.01 | 0.01 | 61 | 1011.9 |
| 20260904204320 | 92 | 360 | 2.0 | 8.0 | 0.00 | 0.01 | 0.01 | 61 | 1011.9 |
| 20260904203820 | 92 | 360 | 3.0 | 8.0 | 0.00 | 0.01 | 0.01 | 61 | 1011.9 |
| 20260904203340 | 91 | 360 | 3.0 | 8.0 | 0.00 | 0.01 | 0.01 | 63 | 1012.0 |
| 20260904202821 | 91 | 360 | 3.0 | 6.0 | 0.00 | 0.01 | 0.01 | 62 | 1012.1 |
| 20260904202321 | 91 | 360 | 0.0 | 4.0 | 0.00 | 0.01 | 0.01 | 62 | 1012.2 |
| 20260904201821 | 91 | 360 | 1.0 | 4.0 | 0.00 | 0.01 | 0.01 | 65 | 1012.3 |
| 20260904201321 | 91 | 360 | 1.0 | 4.0 | 0.00 | 0.01 | 0.01 | 64 | 1012.4 |
| 20260904200821 | 91 | 360 | 2.0 | 4.0 | 0.00 | 0.01 | 0.01 | 64 | 1012.4 |
| 20260904200342 | 91 | 360 | 1.0 | 4.0 | 0.00 | 0.01 | 0.01 | 67 | 1012.5 |
| 20260904195820 | 91 | 360 | 0.0 | 4.0 | 0.00 | 0.01 | 0.01 | 69 | 1012.5 |
| 20260904195319 | 91 | 360 | 2.0 | 6.0 | 0.00 | 0.01 | 0.01 | 68 | 1012.5 |
| 20260904194820 | 91 | 360 | 1.0 | 6.0 | 0.00 | 0.01 | 0.01 | 64 | 1012.6 |
| 20260904194319 | 91 | 360 | 3.0 | 8.0 | 0.00 | 0.01 | 0.01 | 64 | 1012.6 |
| 20260904193819 | 91 | 360 | 4.0 | 8.0 | 0.00 | 0.01 | 0.01 | 63 | 1012.7 |
| 20260904193318 | 91 | 360 | 1.0 | 4.0 | 0.00 | 0.01 | 0.01 | 69 | 1012.8 |
| 20260904192820 | 91 | 360 | 1.0 | 3.0 | 0.00 | 0.01 | 0.01 | 69 | 1012.8 |
| 20260904192340 | 91 | 360 | 0.0 | 4.0 | 0.00 | 0.01 | 0.01 | 72 | 1012.7 |
| 20260904191818 | 90 | 360 | 2.0 | 4.0 | 0.00 | 0.01 | 0.01 | 69 | 1012.8 |
| 20260904191316 | 90 | 360 | 2.0 | 5.0 | 0.00 | 0.01 | 0.01 | 73 | 1012.8 |
| 20260904190837 | 90 | 360 | 3.0 | 5.0 | 0.00 | 0.01 | 0.01 | 72 | 1012.9 |
| 20260904190337 | 90 | 360 | 2.0 | 5.0 | 0.00 | 0.01 | 0.01 | 72 | 1012.9 |
| 20260904185816 | 89 | 360 | 1.0 | 3.0 | 0.00 | 0.01 | 0.01 | 78 | 1013.0 |
| 20260904185316 | 89 | 360 | 0.0 | 3.0 | 0.00 | 0.01 | 0.01 | 77 | 1013.1 |
| 20260904184816 | 88 | 360 | 2.0 | 3.0 | 0.00 | 0.01 | 0.01 | 77 | 1013.3 |
| 20260904184317 | 88 | 360 | 0.0 | 1.0 | 0.00 | 0.01 | 0.01 | 79 | 1013.2 |
| 20260904183818 | 88 | 360 | 0.0 | 2.0 | 0.00 | 0.01 | 0.01 | 82 | 1013.3 |
| 20260904183318 | 87 | 360 | 0.0 | 2.0 | 0.00 | 0.01 | 0.01 | 78 | 1013.3 |
| 20260904182819 | 87 | 360 | 0.0 | 0.0 | 0.00 | 0.01 | 0.01 | 82 | 1013.5 |
| 20260904182319 | 87 | 360 | 0.0 | 1.0 | 0.00 | 0.01 | 0.01 | 81 | 1013.5 |
| 20260904181821 | 87 | 360 | 0.0 | 1.0 | 0.00 | 0.01 | 0.01 | 82 | 1013.6 |
| 20260904181319 | 87 | 360 | 0.0 | 1.0 | 0.00 | 0.01 | 0.01 | 82 | 1013.7 |
| 20260904180821 | 87 | 360 | 0.0 | 2.0 | 0.00 | 0.01 | 0.01 | 81 | 1013.8 |
| 20260904180321 | 87 | 360 | 1.0 | 3.0 | 0.00 | 0.01 | 0.01 | 78 | 1013.8 |
| 20260904175819 | 87 | 360 | 1.0 | 4.0 | 0.00 | 0.01 | 0.01 | 78 | 1013.9 |
| 20260904175319 | 87 | 360 | 2.0 | 5.0 | 0.00 | 0.01 | 0.01 | 79 | 1013.9 |
| 20260904174821 | 87 | 360 | 3.0 | 5.0 | 0.00 | 0.01 | 0.01 | 77 | 1013.9 |
| 20260904174318 | 88 | 360 | 0.0 | 1.0 | 0.00 | 0.01 | 0.01 | 81 | 1013.9 |
| 20260904173819 | 88 | 360 | 0.0 | 3.0 | 0.00 | 0.01 | 0.01 | 81 | 1014.0 |
| 20260904173342 | 88 | 360 | 1.0 | 8.0 | 0.00 | 0.01 | 0.01 | 80 | 1014.0 |
| 20260904172819 | 88 | 360 | 3.0 | 8.0 | 0.00 | 0.01 | 0.01 | 79 | 1014.1 |
| 20260904172340 | 88 | 360 | 1.0 | 4.0 | 0.00 | 0.01 | 0.01 | 79 | 1014.2 |
| 20260904171819 | 88 | 360 | 2.0 | 4.0 | 0.00 | 0.01 | 0.01 | 77 | 1014.2 |
| 20260904171319 | 88 | 360 | 1.0 | 5.0 | 0.00 | 0.01 | 0.01 | 78 | 1014.2 |
| 20260904170839 | 88 | 360 | 3.0 | 6.0 | 0.00 | 0.01 | 0.01 | 79 | 1014.2 |
| 20260904170319 | 88 | 360 | 2.0 | 5.0 | 0.00 | 0.01 | 0.01 | 79 | 1014.3 |
| 20260904165834 | 88 | 360 | 1.0 | 6.0 | 0.00 | 0.01 | 0.01 | 80 | 1014.2 |
| 20260904165335 | 88 | 360 | 2.0 | 6.0 | 0.00 | 0.01 | 0.01 | 78 | 1014.3 |
| 20260904164814 | 88 | 360 | 4.0 | 6.0 | 0.00 | 0.01 | 0.01 | 78 | 1014.3 |
| 20260904164352 | 88 | 360 | 2.0 | 5.0 | 0.00 | 0.01 | 0.01 | 80 | 1014.3 |
| 20260904163831 | 88 | 360 | 2.0 | 6.0 | 0.00 | 0.01 | 0.01 | 81 | 1014.3 |
| 20260904163331 | 87 | 360 | 2.0 | 8.0 | 0.00 | 0.01 | 0.01 | 82 | 1014.4 |
| 20260904162831 | 87 | 360 | 3.0 | 9.0 | 0.00 | 0.01 | 0.01 | 81 | 1014.4 |
| 20260904162331 | 87 | 360 | 3.0 | 10.0 | 0.00 | 0.01 | 0.01 | 81 | 1014.4 |
| 20260904161830 | 87 | 360 | 4.0 | 10.0 | 0.00 | 0.01 | 0.01 | 82 | 1014.3 |
| 20260904161323 | 86 | 360 | 3.0 | 8.0 | 0.00 | 0.01 | 0.01 | 82 | 1014.2 |
| 20260904160822 | 86 | 360 | 5.0 | 8.0 | 0.00 | 0.01 | 0.01 | 83 | 1014.2 |
| 20260904160321 | 86 | 360 | 2.0 | 6.0 | 0.00 | 0.01 | 0.01 | 83 | 1014.1 |
| 20260904155821 | 85 | 360 | 3.0 | 8.0 | 0.00 | 0.01 | 0.01 | 83 | 1014.1 |
| 20260904155322 | 85 | 360 | 3.0 | 8.0 | 0.00 | 0.01 | 0.01 | 85 | 1014.2 |
| 20260904154822 | 85 | 360 | 3.0 | 6.0 | 0.00 | 0.01 | 0.01 | 84 | 1014.1 |
| 20260904154323 | 85 | 360 | 4.0 | 8.0 | 0.00 | 0.01 | 0.01 | 85 | 1014.1 |
| 20260904153822 | 85 | 360 | 3.0 | 8.0 | 0.00 | 0.01 | 0.01 | 86 | 1014.1 |
| 20260904153323 | 85 | 360 | 1.0 | 8.0 | 0.00 | 0.01 | 0.01 | 87 | 1014.1 |
| 20260904152824 | 85 | 360 | 2.0 | 8.0 | 0.00 | 0.01 | 0.01 | 87 | 1014.0 |
| 20260904152324 | 85 | 360 | 1.0 | 6.0 | 0.00 | 0.01 | 0.01 | 88 | 1014.0 |
| 20260904151824 | 84 | 360 | 2.0 | 6.0 | 0.00 | 0.01 | 0.01 | 89 | 1014.0 |
| 20260904151323 | 84 | 360 | 2.0 | 6.0 | 0.00 | 0.01 | 0.01 | 89 | 1013.9 |
| 20260904150845 | 84 | 360 | 3.0 | 6.0 | 0.00 | 0.01 | 0.01 | 91 | 1013.9 |
| 20260904150323 | 84 | 360 | 1.0 | 8.0 | 0.00 | 0.01 | 0.01 | 93 | 1013.9 |
| 20260904145823 | 83 | 360 | 2.0 | 8.0 | 0.00 | 0.01 | 0.01 | 93 | 1013.9 |
| 20260904145324 | 83 | 360 | 2.0 | 6.0 | 0.00 | 0.01 | 0.01 | 94 | 1013.9 |
| 20260904144823 | 83 | 360 | 2.0 | 6.0 | 0.00 | 0.01 | 0.01 | 95 | 1013.9 |
| 20260904144323 | 82 | 360 | 1.0 | 4.0 | 0.00 | 0.01 | 0.01 | 95 | 1013.9 |
| 20260904143824 | 82 | 360 | 2.0 | 4.0 | 0.00 | 0.01 | 0.01 | 96 | 1013.9 |
| 20260904143313 | 82 | 360 | 2.0 | 4.0 | 0.00 | 0.01 | 0.01 | 96 | 1013.9 |
| 20260904142851 | 82 | 360 | 1.0 | 4.0 | 0.00 | 0.01 | 0.01 | 96 | 1013.9 |
| 20260904142328 | 82 | 360 | 1.0 | 3.0 | 0.00 | 0.01 | 0.01 | 97 | 1013.8 |
| 20260904141820 | 82 | 360 | 1.0 | 3.0 | 0.00 | 0.01 | 0.01 | 97 | 1013.8 |
| 20260904141340 | 81 | 360 | 0.0 | 3.0 | 0.00 | 0.01 | 0.01 | 97 | 1013.8 |
| 20260904140820 | 81 | 360 | 1.0 | 2.0 | 0.00 | 0.01 | 0.01 | 97 | 1013.7 |
| 20260904140320 | 81 | 360 | 0.0 | 2.0 | 0.00 | 0.01 | 0.01 | 97 | 1013.6 |
| 20260904135820 | 81 | 360 | 1.0 | 3.0 | 0.01 | 0.01 | 0.01 | 97 | 1013.5 |
| 20260904135320 | 81 | 360 | 0.0 | 3.0 | 0.01 | 0.01 | 0.01 | 97 | 1013.5 |
| 20260904134819 | 81 | 360 | 0.0 | 3.0 | 0.01 | 0.01 | 0.01 | 97 | 1013.4 |
| 20260904134321 | 81 | 360 | 0.0 | 2.0 | 0.01 | 0.01 | 0.01 | 97 | 1013.4 |
| 20260904133822 | 81 | 360 | 0.0 | 2.0 | 0.01 | 0.01 | 0.01 | 97 | 1013.4 |
| 20260904133321 | 80 | 360 | 0.0 | 1.0 | 0.01 | 0.01 | 0.01 | 97 | 1013.4 |
| 20260904132822 | 80 | 360 | 0.0 | 2.0 | 0.01 | 0.01 | 0.01 | 97 | 1013.4 |
| 20260904132342 | 80 | 360 | 0.0 | 2.0 | 0.01 | 0.01 | 0.01 | 96 | 1013.3 |
| 20260904131821 | 80 | 360 | 0.0 | 1.0 | 0.01 | 0.01 | 0.01 | 96 | 1013.3 |
| 20260904131320 | 80 | 360 | 0.0 | 1.0 | 0.01 | 0.01 | 0.01 | 96 | 1013.3 |
| 20260904130820 | 80 | 360 | 0.0 | 3.0 | 0.01 | 0.01 | 0.01 | 96 | 1013.2 |
| 20260904130340 | 80 | 360 | 2.0 | 5.0 | 0.01 | 0.01 | 0.01 | 95 | 1013.1 |
| 20260904125819 | 80 | 360 | 3.0 | 5.0 | 0.00 | 0.00 | 0.00 | 95 | 1013.0 |
| 20260904125317 | 80 | 360 | 2.0 | 5.0 | 0.00 | 0.00 | 0.00 | 95 | 1013.0 |
| 20260904124816 | 80 | 360 | 2.0 | 4.0 | 0.00 | 0.00 | 0.00 | 95 | 1013.0 |
| 20260904124316 | 80 | 360 | 1.0 | 4.0 | 0.00 | 0.00 | 0.00 | 94 | 1013.1 |
| 20260904123818 | 80 | 360 | 2.0 | 4.0 | 0.00 | 0.00 | 0.00 | 94 | 1013.0 |
| 20260904123319 | 80 | 360 | 2.0 | 4.0 | 0.00 | 0.00 | 0.00 | 94 | 1013.0 |
| 20260904122817 | 80 | 360 | 2.0 | 4.0 | 0.00 | 0.00 | 0.00 | 94 | 1013.0 |
| 20260904122317 | 80 | 360 | 2.0 | 4.0 | 0.00 | 0.00 | 0.00 | 94 | 1013.0 |
| 20260904121818 | 80 | 360 | 1.0 | 3.0 | 0.00 | 0.00 | 0.00 | 94 | 1013.0 |
| 20260904121319 | 80 | 360 | 1.0 | 3.0 | 0.00 | 0.00 | 0.00 | 94 | 1013.0 |
| 20260904120840 | 80 | 360 | 1.0 | 4.0 | 0.00 | 0.00 | 0.00 | 94 | 1013.0 |
| 20260904120320 | 80 | 360 | 0.0 | 4.0 | 0.00 | 0.00 | 0.00 | 94 | 1013.0 |
| 20260904115837 | 80 | 360 | 1.0 | 5.0 | 0.00 | 0.00 | 0.00 | 94 | 1012.9 |
| 20260904115316 | 80 | 360 | 0.0 | 4.0 | 0.00 | 0.00 | 0.00 | 94 | 1012.9 |
| 20260904114818 | 80 | 360 | 1.0 | 4.0 | 0.00 | 0.00 | 0.00 | 94 | 1013.0 |
| 20260904114317 | 80 | 360 | 1.0 | 3.0 | 0.00 | 0.00 | 0.00 | 94 | 1013.1 |
| 20260904113817 | 80 | 360 | 1.0 | 4.0 | 0.00 | 0.00 | 0.00 | 94 | 1013.1 |
| 20260904113338 | 80 | 360 | 1.0 | 4.0 | 0.00 | 0.00 | 0.00 | 94 | 1013.0 |
| 20260904112818 | 80 | 360 | 2.0 | 4.0 | 0.00 | 0.00 | 0.00 | 94 | 1013.0 |
| 20260904112339 | 79 | 360 | 1.0 | 5.0 | 0.00 | 0.00 | 0.00 | 94 | 1012.9 |
| 20260904111817 | 79 | 360 | 2.0 | 5.0 | 0.00 | 0.00 | 0.00 | 94 | 1012.9 |
| 20260904111317 | 79 | 360 | 1.0 | 3.0 | 0.00 | 0.00 | 0.00 | 94 | 1012.9 |
| 20260904110817 | 79 | 360 | 1.0 | 4.0 | 0.00 | 0.00 | 0.00 | 94 | 1012.7 |
| 20260904110317 | 79 | 360 | 1.0 | 4.0 | 0.00 | 0.00 | 0.00 | 94 | 1012.6 |
| 20260904105817 | 79 | 360 | 1.0 | 4.0 | 0.00 | 0.00 | 0.00 | 94 | 1012.6 |
| 20260904105317 | 79 | 360 | 2.0 | 4.0 | 0.00 | 0.00 | 0.00 | 94 | 1012.5 |
| 20260904104817 | 79 | 360 | 2.0 | 4.0 | 0.00 | 0.00 | 0.00 | 94 | 1012.5 |
| 20260904104317 | 79 | 360 | 1.0 | 4.0 | 0.00 | 0.00 | 0.00 | 94 | 1012.5 |
| 20260904103816 | 80 | 360 | 0.0 | 2.0 | 0.00 | 0.00 | 0.00 | 94 | 1012.4 |
| 20260904103316 | 80 | 360 | 0.0 | 1.0 | 0.00 | 0.00 | 0.00 | 94 | 1012.4 |
| 20260904102837 | 80 | 360 | 0.0 | 1.0 | 0.00 | 0.00 | 0.00 | 94 | 1012.4 |
| 20260904102316 | 80 | 360 | 0.0 | 1.0 | 0.00 | 0.00 | 0.00 | 94 | 1012.4 |
| 20260904101816 | 80 | 360 | 0.0 | 2.0 | 0.00 | 0.00 | 0.00 | 94 | 1012.4 |
| 20260904101336 | 80 | 360 | 0.0 | 2.0 | 0.00 | 0.00 | 0.00 | 94 | 1012.4 |
| 20260904100816 | 80 | 360 | 0.0 | 1.0 | 0.00 | 0.00 | 0.00 | 94 | 1012.4 |
| 20260904100315 | 80 | 360 | 0.0 | 1.0 | 0.00 | 0.00 | 0.00 | 94 | 1012.3 |
| 20260904095815 | 80 | 360 | 0.0 | 1.0 | 0.00 | 0.00 | 0.00 | 94 | 1012.2 |
| 20260904095317 | 80 | 360 | 0.0 | 1.0 | 0.00 | 0.00 | 0.00 | 93 | 1012.2 |
| 20260904094836 | 80 | 360 | 0.0 | 1.0 | 0.00 | 0.00 | 0.00 | 93 | 1012.1 |
| 20260904094316 | 80 | 360 | 0.0 | 1.0 | 0.00 | 0.00 | 0.00 | 94 | 1012.1 |
| 20260904093816 | 80 | 360 | 0.0 | 0.0 | 0.00 | 0.00 | 0.00 | 94 | 1012.2 |
| 20260904093327 | 80 | 360 | 0.0 | 0.0 | 0.00 | 0.00 | 0.00 | 93 | 1012.1 |
| 20260904092828 | 80 | 360 | 0.0 | 0.0 | 0.00 | 0.00 | 0.00 | 93 | 1012.1 |
| 20260904092328 | 80 | 360 | 0.0 | 0.0 | 0.00 | 0.00 | 0.00 | 93 | 1012.1 |
| 20260904091848 | 80 | 360 | 0.0 | 0.0 | 0.00 | 0.00 | 0.00 | 93 | 1012.1 |
| 20260904091327 | 80 | 360 | 0.0 | 0.0 | 0.00 | 0.00 | 0.00 | 93 | 1012.1 |
| 20260904090826 | 80 | 360 | 0.0 | 0.0 | 0.00 | 0.00 | 0.00 | 93 | 1012.1 |
| 20260904090332 | 80 | 360 | 0.0 | 1.0 | 0.00 | 0.00 | 0.00 | 93 | 1012.0 |
| 20260904085813 | 80 | 360 | 0.0 | 1.0 | 0.00 | 0.00 | 0.00 | 93 | 1012.0 |
| 20260904085313 | 80 | 360 | 0.0 | 0.0 | 0.00 | 0.00 | 0.00 | 93 | 1012.0 |
| 20260904084833 | 80 | 360 | 0.0 | 0.0 | 0.00 | 0.00 | 0.00 | 93 | 1012.0 |
| 20260904084314 | 80 | 360 | 0.0 | 1.0 | 0.00 | 0.00 | 0.00 | 93 | 1012.0 |
| 20260904083835 | 80 | 360 | 0.0 | 1.0 | 0.00 | 0.00 | 0.00 | 93 | 1012.0 |
| 20260904083316 | 80 | 360 | 0.0 | 3.0 | 0.00 | 0.00 | 0.00 | 93 | 1012.0 |
| 20260904082836 | 80 | 360 | 0.0 | 3.0 | 0.00 | 0.00 | 0.00 | 93 | 1011.9 |
| 20260904082315 | 80 | 360 | 1.0 | 3.0 | 0.00 | 0.00 | 0.00 | 93 | 1012.0 |
| 20260904081815 | 80 | 360 | 1.0 | 3.0 | 0.00 | 0.00 | 0.00 | 93 | 1012.0 |
| 20260904081335 | 80 | 360 | 1.0 | 4.0 | 0.00 | 0.00 | 0.00 | 93 | 1012.0 |
| 20260904080814 | 80 | 360 | 2.0 | 4.0 | 0.00 | 0.00 | 0.00 | 93 | 1012.0 |
| 20260904080312 | 80 | 360 | 1.0 | 2.0 | 0.00 | 0.00 | 0.00 | 93 | 1012.0 |
| 20260904075814 | 80 | 360 | 0.0 | 1.0 | 0.00 | 0.00 | 0.00 | 93 | 1012.1 |
| 20260904075315 | 80 | 360 | 0.0 | 3.0 | 0.00 | 0.00 | 0.00 | 93 | 1012.1 |
| 20260904074814 | 80 | 360 | 1.0 | 3.0 | 0.00 | 0.00 | 0.00 | 93 | 1012.1 |
| 20260904074314 | 80 | 360 | 0.0 | 3.0 | 0.00 | 0.00 | 0.00 | 93 | 1012.1 |
| 20260904073813 | 80 | 360 | 0.0 | 2.0 | 0.00 | 0.00 | 0.00 | 93 | 1012.1 |
| 20260904073315 | 79 | 360 | 1.0 | 2.0 | 0.00 | 0.00 | 0.00 | 93 | 1012.0 |
| 20260904072814 | 79 | 360 | 0.0 | 1.0 | 0.00 | 0.00 | 0.00 | 93 | 1012.1 |
| 20260904072313 | 79 | 360 | 0.0 | 1.0 | 0.00 | 0.00 | 0.00 | 92 | 1012.2 |
| 20260904071813 | 79 | 360 | 0.0 | 0.0 | 0.00 | 0.00 | 0.00 | 92 | 1012.4 |
| 20260904071328 | 79 | 360 | 0.0 | 0.0 | 0.00 | 0.00 | 0.00 | 92 | 1012.4 |
| 20260904070847 | 79 | 360 | 0.0 | 1.0 | 0.00 | 0.00 | 0.00 | 92 | 1012.4 |
| 20260904070325 | 79 | 360 | 0.0 | 1.0 | 0.00 | 0.00 | 0.00 | 92 | 1012.4 |
| 20260904065824 | 79 | 360 | 0.0 | 1.0 | 0.00 | 0.00 | 0.00 | 92 | 1012.5 |
| 20260904065343 | 79 | 360 | 0.0 | 2.0 | 0.00 | 0.00 | 0.00 | 92 | 1012.6 |
| 20260904064821 | 79 | 360 | 0.0 | 1.0 | 0.00 | 0.00 | 0.00 | 91 | 1012.5 |
| 20260904064319 | 79 | 360 | 0.0 | 1.0 | 0.00 | 0.00 | 0.00 | 91 | 1012.6 |
| 20260904063819 | 79 | 360 | 0.0 | 1.0 | 0.00 | 0.00 | 0.00 | 91 | 1012.5 |
| 20260904063317 | 79 | 360 | 0.0 | 1.0 | 0.00 | 0.00 | 0.00 | 90 | 1012.5 |
| 20260904062837 | 79 | 360 | 0.0 | 1.0 | 0.00 | 0.00 | 0.00 | 90 | 1012.5 |
| 20260904062313 | 79 | 360 | 0.0 | 2.0 | 0.00 | 0.00 | 0.00 | 90 | 1012.5 |
| 20260904061834 | 79 | 360 | 0.0 | 2.0 | 0.00 | 0.00 | 0.00 | 90 | 1012.6 |
| 20260904061345 | 79 | 360 | 0.0 | 2.0 | 0.00 | 0.00 | 0.00 | 89 | 1012.5 |
| 20260904060823 | 80 | 360 | 0.0 | 2.0 | 0.00 | 0.00 | 0.00 | 89 | 1012.6 |
| 20260904060324 | 80 | 360 | 0.0 | 0.0 | 0.00 | 0.00 | 0.00 | 89 | 1012.6 |
| 20260904055838 | 80 | 360 | 0.0 | 0.0 | 0.00 | 0.00 | 0.00 | 89 | 1012.7 |
| 20260904055314 | 80 | 360 | 0.0 | 2.0 | 0.00 | 0.00 | 0.00 | 88 | 1012.6 |
| 20260904054833 | 80 | 360 | 1.0 | 2.0 | 0.00 | 0.00 | 0.00 | 88 | 1012.6 |
| 20260904054330 | 80 | 360 | 1.0 | 2.0 | 0.00 | 0.00 | 0.00 | 88 | 1012.6 |
| 20260904053829 | 80 | 360 | 1.0 | 2.0 | 0.00 | 0.00 | 0.00 | 88 | 1012.6 |
| 20260904053328 | 80 | 360 | 0.0 | 2.0 | 0.00 | 0.00 | 0.00 | 87 | 1012.6 |
| 20260904052824 | 80 | 360 | 0.0 | 2.0 | 0.00 | 0.00 | 0.00 | 87 | 1012.5 |
| 20260904052324 | 80 | 360 | 0.0 | 2.0 | 0.00 | 0.00 | 0.00 | 87 | 1012.4 |
| 20260904051823 | 81 | 360 | 1.0 | 3.0 | 0.00 | 0.00 | 0.00 | 86 | 1012.4 |
| 20260904051322 | 81 | 360 | 1.0 | 3.0 | 0.00 | 0.00 | 0.00 | 86 | 1012.3 |
| 20260904050820 | 81 | 360 | 2.0 | 3.0 | 0.00 | 0.00 | 0.00 | 86 | 1012.3 |
| 20260904050320 | 81 | 360 | 1.0 | 4.0 | 0.00 | 0.00 | 0.00 | 86 | 1012.3 |
| 20260904045820 | 81 | 360 | 1.0 | 4.0 | 0.00 | 0.00 | 0.00 | 86 | 1012.3 |
| 20260904045335 | 81 | 360 | 2.0 | 4.0 | 0.00 | 0.00 | 0.00 | 85 | 1012.3 |
| 20260904044834 | 81 | 360 | 2.0 | 6.0 | 0.00 | 0.00 | 0.00 | 85 | 1012.3 |
| 20260904044331 | 82 | 360 | 2.0 | 6.0 | 0.00 | 0.00 | 0.00 | 85 | 1012.3 |
| 20260904043830 | 82 | 360 | 2.0 | 6.0 | 0.00 | 0.00 | 0.00 | 85 | 1012.3 |
| 20260904043330 | 82 | 360 | 2.0 | 6.0 | 0.00 | 0.00 | 0.00 | 85 | 1012.2 |
| 20260904042830 | 82 | 360 | 4.0 | 6.0 | 0.00 | 0.00 | 0.00 | 84 | 1012.2 |
| 20260904042329 | 82 | 360 | 3.0 | 8.0 | 0.00 | 0.00 | 0.00 | 84 | 1012.2 |
| 20260904041828 | 82 | 360 | 3.0 | 9.0 | 0.00 | 0.00 | 0.00 | 84 | 1012.3 |
| 20260904041327 | 82 | 360 | 4.0 | 9.0 | 0.00 | 0.00 | 0.00 | 84 | 1012.3 |
| 20260904040827 | 82 | 360 | 3.0 | 8.0 | 0.00 | 0.00 | 0.00 | 84 | 1012.3 |
| 20260904040326 | 82 | 360 | 4.0 | 12.0 | 0.00 | 0.00 | 0.00 | 83 | 1012.3 |
| 20260904035825 | 82 | 360 | 5.0 | 12.0 | 0.00 | 0.00 | 0.00 | 83 | 1012.2 |
| 20260904035345 | 82 | 360 | 6.0 | 9.0 | 0.00 | 0.00 | 0.00 | 83 | 1012.1 |
| 20260904034822 | 82 | 360 | 4.0 | 10.0 | 0.00 | 0.00 | 0.00 | 83 | 1012.1 |
| 20260904034322 | 82 | 360 | 4.0 | 9.0 | 0.00 | 0.00 | 0.00 | 83 | 1012.0 |
| 20260904033822 | 82 | 360 | 4.0 | 10.0 | 0.00 | 0.00 | 0.00 | 83 | 1011.9 |
| 20260904033321 | 83 | 360 | 4.0 | 10.0 | 0.00 | 0.00 | 0.00 | 82 | 1011.9 |